Regional Weather Roundup
Issued by NWS Newport/Morehead, NC

Current Version | Previous Version | Text Only | Print | Product List | Glossary On
Versions: 1 2 3 4 5 6 7 8 9 10 11 12 13 14 15 16 17 18 19 20 21 22 23 24 25 26 27 28 29 30 31 32 33 34 35 36 37 38 39 40 41 42 43 44 45 46 47 48 49 50
000
ASUS42 KMHX 272110
RWRMHX
WEATHER ROUNDUP FOR EASTERN NORTH CAROLINA
NATIONAL WEATHER SERVICE NEWPORT/MOREHEAD CITY NC
400 PM EST SAT DEC 27 2014

NOTE: "FAIR" INDICATES FEW OR NO CLOUDS BELOW 12,000 FEET
WITH NO SIGNIFICANT WEATHER AND/OR OBSTRUCTIONS TO VISIBILITY

NCZ015>017-031-032-045>047-102-103-272200-
NORTH COAST

CITY           SKY/WX    TMP DP  RH WIND       PRES   REMARKS
EDENTON        CLEAR     59  40  49 CALM      30.24S
ELIZABETH CITY CLEAR     61  38  42 SW7       30.25R
KITTY HAWK     CLEAR     55  39  56 SE3       30.24R
MANTEO         CLEAR     54  39  58 S6        30.26R

$$

NCZ045>047-081-094-103-104-272200-
CENTRAL COAST

CITY           SKY/WX    TMP DP  RH WIND       PRES   REMARKS
FRISCO         CLEAR     55  42  61 N3        30.25S
SWANQUARTER      N/A     59 N/A N/A S2        30.21S

$$

NCZ095-097-098-100-101-272200-
SOUTHERN COAST

CITY           SKY/WX    TMP DP  RH WIND       PRES   REMARKS
BEAUFORT       SUNNY     57  43  59 SW6       30.26R
CEDAR ISLAND     N/A     54 N/A N/A NE2       30.30R
JACKSONVILLE   SUNNY     60  44  55 SE8       30.24F
PINEY ISLAND   CLEAR     57  41  55 NE5       30.25S
WILMINGTON     SUNNY     61  43  51 SE6       30.24S


$$

NCZ011>013-027>030-043-044-078>080-089-090>093-098-272200-
COASTAL PLAIN

CITY           SKY/WX    TMP DP  RH WIND       PRES   REMARKS
AHOSKIE        CLEAR     58  37  44 CALM      30.23F
CLINTON        SUNNY     63  39  41 CALM      30.24S
ELIZABETHTOWN  SUNNY     64  40  41 SW5       30.23S
GOLDSBORO      SUNNY     62  40  45 SW5       30.22S
GREENVILLE     CLEAR     61  36  39 SW6       30.25S
HAVELOCK       MOSUNNY   61  42  49 SW7       30.25S
KENANSVILLE    SUNNY     62  33  33 SW3       30.25S
KINSTON        SUNNY     63  36  36 SW5       30.25S
NEW BERN       SUNNY     65  39  38 SW3       30.25S
RICHLANDS      SUNNY     63  37  39 SW6       30.25S
ROCKY MOUNT    SUNNY     60  38  43 S5        30.23F
WASHINGTON     CLEAR     60  37  41 SW6       30.25R
WHITEVILLE     SUNNY     65  44  47 CALM      30.23S

$$

AMZ130-135-150-152-154-156-158-170-250-252-270-ANZ085-086-088-633-658-670-272200-
MARINE OBSERVATIONS

STATION/POSITION TIME  TEMP    WIND        PRES    WAVE   SWELL
                       AIR SEA DIR/SP/G            HT/PER HT/PER
                 (UTC) (F)     (DEG/KT/KT) (MB)    (FT/S) (FT/S)
CHESAPEAKE LIGHT 2000   53                 1023.8
64 E VA BEACH    2100   53 53  180/  6/  8 1023.7    3/16   3/16
DUCK             2100   52 48  150/ 10/ 10 1023.3
2 E DUCK         2100      49                N/A     2/17   2/17
10 NE DUCK       2100      51                N/A     3/15   3/15
OREGON INLET     2100   54 53  160/  5/  7 1024.4
13E OREGON INLT  2100      53                N/A     3/15   3/15
HATTERAS CG      2100   53 54  340/  3/  4 1024.8
DIAMOND BUOY     2100   62                 1024.7    3/16
17 S OCRACOKE    NOT AVBL
CAPE LOOKOUT     2100   56     160/  3/  3 1024.5
BEAUFORT LAB     2100   57 54  210/  4/  5 1023.4
30 SE NEW RIVER  2100   61 62  190/  2/  4 1025.0    3/16   3/16
5 SE WRIGHTSVLE  NOT AVBL
225 S CAPE HAT   2047   69 74  120/ 10/ 14 1024.7    5/16   5/16
41 SE CHARLESTON 2100   66 74   40/ 10/ 12 1023.5    3/ 9   2/ 9

$$


USA.gov is the U.S. government's official web portal to all federal, state and local government web resources and services.